Theta_e
314 314 314 314 314 314 314 315 315 315 315 315 315 314 314 314 314 313 313 313 313 313 313 313 313 314 314 314 314 314 314 314 314 314 313 313 313 313 313 312 312 312 312 312 312 313 313 314 315 315 316 317 317 317 316 316 315 315 315 314 314 313 312 312 313 314 315 315 315 316 316 316 316 316 316 316 316 315 315 314 314 314 313 313 312 312
314 314 314 314 314 313 313 313 314 314 314 313 313 313 313 312 312 312 312 312 312 312 312 313 313 313 314 314 314 314 314 313 313 313 313 313 313 313 312 312 312 312 312 312 312 313 314 314 315 315 316 316 316 316 316 315 315 314 314 313 313 312 312 312 312 313 314 314 315 315 315 315 315 315 315 315 315 315 314 314 314 313 313 312 312 311
313 313 312 312 313 313 313 313 313 312 312 312 312 312 312 312 312 311 311 312 312 312 312 312 312 313 313 313 313 313 313 313 312 312 312 312 312 312 311 312 312 312 312 312 312 313 314 314 315 316 316 315 315 315 315 315 314 314 313 313 312 312 312 312 312 312 313 313 313 314 314 314 314 314 314 314 314 314 314 313 313 313 312 311 311 311
312 312 311 311 311 311 312 312 312 312 312 312 311 311 311 311 311 311 311 311 311 311 311 311 311 311 312 312 312 312 312 312 311 312 312 312 312 311 311 311 312 312 312 312 312 313 314 314 315 315 315 315 315 315 315 314 314 313 313 312 312 311 311 311 311 312 312 313 313 313 313 313 313 313 312 312 312 312 312 312 312 311 311 310 310 310
311 311 311 310 310 310 310 310 311 311 311 311 311 310 310 310 310 310 310 310 310 310 310 310 310 310 310 311 311 311 311 310 311 311 311 311 311 311 311 311 312 312 312 313 313 313 314 314 314 314 314 314 314 314 314 313 313 312 312 312 311 311 311 311 311 311 311 312 313 313 313 313 312 312 311 311 311 311 311 311 310 310 310 310 309 309
310 310 310 310 310 309 309 309 309 309 309 309 309 309 309 309 309 309 309 309 309 309 309 309 309 309 310 310 310 310 310 310 310 311 311 311 311 311 311 311 312 312 313 313 313 313 314 314 313 313 313 313 313 313 313 313 312 312 311 311 310 310 310 310 310 310 310 311 312 312 312 312 312 312 311 311 310 310 310 309 309 309 310 309 309 309
310 309 309 309 309 309 308 308 308 308 308 308 308 307 307 307 307 307 308 308 308 308 308 308 308 308 308 308 309 309 309 309 310 310 310 310 311 311 311 311 311 312 313 313 313 313 313 313 313 313 312 312 312 313 312 312 311 311 310 310 309 309 309 309 309 309 309 310 311 311 311 311 311 311 311 311 310 310 310 309 309 309 309 309 309 309
309 309 309 309 308 308 308 308 308 307 307 307 307 307 307 306 306 306 306 306 306 306 306 306 306 307 307 307 308 308 309 309 309 310 310 310 310 310 310 310 311 312 313 313 313 313 313 313 313 312 312 312 312 312 311 311 310 310 309 309 308 308 308 308 308 308 309 309 310 310 310 309 309 309 310 310 310 310 309 309 309 309 309 309 308 308
309 309 308 308 308 308 308 307 307 307 307 307 306 306 306 305 305 305 305 305 304 304 304 304 304 305 305 306 307 307 308 308 309 309 309 309 310 310 310 310 311 312 312 313 313 313 313 313 312 312 311 311 311 311 311 310 309 309 308 308 307 307 307 307 307 308 308 308 309 309 309 309 309 309 309 309 309 309 309 309 308 308 307 307 307 306
308 308 308 308 308 307 307 307 307 306 306 306 306 305 305 305 305 304 304 303 303 303 304 303 303 304 304 305 306 306 307 307 308 308 308 308 309 309 310 310 311 311 312 312 312 312 312 312 311 311 311 310 310 310 310 309 309 308 307 307 306 306 307 307 307 307 307 308 308 309 309 308 308 308 309 309 309 309 309 308 307 307 306 305 305 304
308 308 308 307 307 307 306 306 306 306 306 306 305 305 305 305 304 304 303 303 303 302 303 303 303 303 304 304 305 305 306 306 306 307 307 307 308 309 309 310 310 311 311 312 311 311 311 311 310 310 310 309 309 309 309 308 308 307 307 306 306 306 306 306 307 307 307 307 308 308 308 308 308 308 308 308 308 308 308 308 307 306 305 304 303 303
307 307 307 307 307 306 306 306 306 305 305 305 304 304 304 304 304 303 303 303 302 302 302 302 302 303 303 303 304 304 305 305 305 306 306 307 307 308 308 309 309 310 311 311 311 311 310 310 310 309 309 308 308 308 308 307 307 307 306 306 306 306 306 306 306 306 307 307 307 308 308 307 307 307 307 307 307 307 307 307 306 305 304 303 303 302
307 306 306 306 306 306 305 305 305 305 304 304 303 303 303 303 303 303 302 302 302 302 302 302 302 302 302 303 303 303 304 304 305 305 305 306 307 307 308 308 309 310 310 311 310 310 309 309 309 308 308 308 307 307 307 307 307 306 306 306 306 305 306 306 306 306 306 306 307 307 307 306 306 306 305 305 305 305 305 305 305 304 304 303 302 302
306 306 306 305 305 305 304 304 304 303 303 303 303 303 303 303 302 302 302 302 302 302 302 302 302 302 302 302 302 303 303 303 304 304 305 305 306 307 307 308 309 309 310 310 310 309 309 308 308 307 307 307 307 307 307 306 306 306 306 305 305 305 305 305 305 306 306 306 306 306 306 305 305 304 304 303 303 303 303 303 303 303 303 303 302 302
305 305 304 304 304 304 304 303 303 303 303 303 302 302 302 302 302 302 302 301 301 301 301 301 301 301 301 301 302 302 302 302 303 303 304 305 305 306 306 307 308 309 309 309 309 309 308 307 307 306 306 306 306 306 306 306 306 305 305 305 305 304 305 305 305 305 305 305 305 305 305 304 304 303 303 303 302 302 302 303 303 303 303 302 301 301
305 305 304 304 304 304 304 303 303 303 303 303 302 302 302 302 301 301 301 301 301 301 301 300 300 300 300 300 301 301 302 302 302 302 303 304 305 305 306 307 307 308 308 308 308 308 307 307 306 306 306 305 306 306 306 305 305 305 305 304 304 304 304 304 304 304 305 305 304 304 304 303 303 303 303 302 302 302 302 302 302 301 301 300 299 298
305 304 304 304 303 303 303 303 303 303 303 303 302 302 302 301 301 301 301 301 301 300 300 300 300 299 300 301 301 301 301 302 302 302 302 303 304 305 305 306 307 307 307 307 307 307 306 306 305 305 305 305 305 305 305 305 305 304 304 304 304 304 304 303 303 304 304 303 303 303 303 302 302 302 302 302 301 301 301 300 300 299 298 297 296 295
304 304 304 304 304 303 303 303 303 303 302 302 302 302 301 301 301 301 301 301 300 300 300 300 300 300 300 301 301 301 301 302 302 302 302 302 303 304 305 305 306 306 306 306 306 306 306 305 305 305 305 305 305 305 305 304 304 304 304 303 303 303 303 303 303 303 303 302 302 302 301 301 301 301 301 300 300 300 299 298 298 297 296 295 294 293
304 303 303 304 304 304 303 303 303 302 302 302 302 301 301 301 301 301 301 300 300 300 300 300 300 300 300 301 301 301 301 302 302 302 301 302 303 304 304 305 305 305 305 305 305 305 305 305 305 305 304 304 304 304 304 304 304 303 303 303 303 302 302 302 302 302 301 301 301 300 300 299 299 299 299 299 299 299 298 298 297 296 296 295 294 293
304 303 304 304 304 303 303 303 303 302 302 302 302 301 301 301 300 300 300 300 300 300 300 300 300 300 300 300 301 301 301 302 302 301 301 302 302 303 303 304 304 304 304 304 304 304 304 304 304 304 304 304 304 303 303 303 303 303 303 302 302 302 301 301 301 301 300 300 299 299 299 298 298 298 299 299 299 298 298 297 297 296 295 295 294 293
304 304 304 304 304 303 303 303 303 303 302 302 302 301 301 301 300 300 300 300 300 300 300 300 300 300 300 300 300 301 301 301 301 301 301 301 302 302 303 303 303 303 303 303 304 304 304 304 304 303 303 303 303 303 303 303 302 302 302 302 301 301 300 300 300 300 299 299 299 298 298 297 297 297 298 298 297 297 296 295 294 293 293 292 291 290
305 304 304 304 304 303 303 303 303 303 303 302 302 301 301 301 300 300 300 300 299 299 299 299 300 300 300 300 300 300 301 301 301 301 301 301 301 301 302 302 303 302 302 302 303 303 303 303 303 303 303 303 302 302 302 302 302 302 301 301 301 300 300 299 299 299 299 298 298 297 297 296 296 296 296 295 295 294 293 291 291 290 289 289 289 288
305 305 305 304 304 304 304 304 303 303 303 303 302 302 302 301 301 300 300 300 300 299 299 299 300 300 300 300 300 300 300 300 301 301 301 301 301 301 301 301 302 301 301 301 302 302 303 303 303 302 302 302 302 302 302 301 301 301 301 300 300 300 299 299 298 298 298 297 297 296 295 294 294 293 293 292 292 291 290 289 288 288 288 288 288 288
305 305 305 305 304 304 304 304 304 303 303 303 303 302 302 302 302 301 301 301 301 300 300 299 299 299 299 300 300 300 300 300 300 300 301 301 301 301 301 301 301 300 300 300 301 301 302 302 302 302 301 301 301 301 301 301 301 301 300 300 300 299 299 298 298 297 297 296 295 294 293 292 291 291 291 290 290 289 289 288 288 288 288 289 289 289
304 304 304 304 304 304 304 304 304 304 303 303 303 303 303 302 302 302 302 301 301 300 300 299 298 298 298 298 299 299 299 300 300 300 300 301 301 301 300 300 300 299 299 299 300 300 301 301 301 301 301 300 300 300 300 300 300 300 300 299 299 298 298 297 297 297 296 295 294 292 291 290 290 290 290 290 290 289 289 288 288 288 289 289 290 290
304 304 304 304 304 304 304 304 304 304 304 303 303 303 303 302 302 302 301 301 300 300 299 298 297 297 297 297 297 298 298 299 299 299 300 300 300 300 299 299 299 299 299 298 298 299 300 300 300 300 300 300 299 299 299 299 299 299 299 299 298 298 298 297 297 296 295 294 293 291 290 290 290 290 290 290 290 289 289 289 289 289 289 290 290 290
303 303 303 303 303 303 303 304 304 304 304 304 303 303 303 302 301 301 300 300 300 299 298 298 298 298 298 296 296 296 297 298 299 299 299 300 299 299 298 298 299 299 298 297 297 298 299 299 299 299 299 299 299 298 298 298 298 298 298 298 298 297 297 296 296 295 295 293 292 291 290 290 291 291 291 291 290 290 289 289 289 289 290 290 290 290
303 303 303 303 303 303 303 303 303 304 304 304 303 303 303 302 301 300 300 300 299 299 298 298 298 298 298 297 296 297 296 297 298 299 299 299 299 299 298 298 298 298 297 296 296 296 297 297 298 298 299 299 299 298 298 297 297 297 297 297 297 297 296 296 295 295 294 293 292 291 290 290 291 291 291 291 290 290 290 289 289 290 290 290 290 290
302 303 303 303 303 303 303 303 303 303 303 303 303 303 302 302 301 301 300 300 299 299 298 299 299 299 299 298 297 296 296 296 297 298 298 298 298 298 297 297 297 296 296 294 294 294 295 295 296 297 298 298 298 298 297 297 296 296 296 296 296 296 296 295 294 294 293 293 292 291 290 291 291 291 291 291 291 290 290 290 290 290 290 290 290 290
301 301 302 302 302 302 302 302 303 303 303 303 303 303 302 302 301 301 301 300 300 299 299 299 299 299 298 296 295 294 294 295 296 297 298 298 297 296 295 295 295 295 295 293 292 291 292 293 295 296 297 297 298 298 297 297 296 296 295 295 295 295 295 294 294 293 293 292 292 291 290 291 291 291 291 291 291 290 290 290 290 290 290 290 290 290
301 301 301 301 302 302 302 302 302 302 303 303 303 303 302 302 302 301 301 301 300 299 299 299 299 299 298 296 294 294 295 295 296 297 297 297 297 296 294 294 294 294 295 295 293 292 291 291 293 294 296 296 297 297 297 296 296 295 295 295 294 294 294 293 293 292 292 292 291 291 291 291 291 291 291 291 291 290 290 290 290 290 290 290 290 289
301 301 301 301 301 301 302 302 302 302 302 302 302 302 302 302 302 301 301 301 300 300 299 299 299 299 298 297 297 297 296 296 296 297 297 297 297 296 295 294 294 294 294 295 296 295 293 290 291 293 294 295 296 296 296 296 296 295 295 294 294 294 294 293 292 292 292 291 291 291 291 291 291 291 291 291 291 290 290 290 290 290 290 289 289 289
301 301 301 301 301 301 301 301 301 302 302 302 302 302 302 302 302 302 301 301 301 300 300 299 299 298 298 298 298 298 298 297 297 297 297 297 296 296 294 294 294 293 293 294 295 295 294 291 290 290 292 293 294 295 296 296 295 295 295 294 294 294 293 293 292 292 292 291 291 291 291 291 291 291 291 291 291 290 290 290 290 290 290 289 289 288
301 301 300 300 300 300 301 301 301 301 301 301 301 302 302 302 302 302 302 301 301 301 300 300 299 299 298 298 297 297 298 297 297 297 298 297 297 296 294 293 293 293 292 292 292 293 293 291 290 290 290 291 292 294 295 295 295 294 294 294 294 294 293 293 292 292 292 291 291 291 291 291 291 291 291 291 290 290 290 290 290 290 290 289 289 288
300 300 300 300 300 300 300 300 300 300 301 301 301 301 301 301 302 302 302 301 301 301 301 300 300 299 299 298 297 297 297 297 297 297 297 297 297 296 294 293 293 292 291 291 291 291 290 290 290 290 289 289 290 291 293 294 294 294 294 294 294 293 293 292 292 292 291 291 291 290 291 291 291 291 291 291 290 290 290 290 290 290 290 289 289 288
300 300 300 300 300 300 300 299 300 300 300 300 300 301 301 301 301 301 301 301 301 301 301 301 301 300 300 299 299 298 298 298 298 297 297 297 297 296 295 294 293 293 292 291 291 290 289 288 288 289 288 288 289 289 291 292 293 293 293 293 293 293 292 292 292 292 291 291 290 290 290 290 291 291 291 290 290 290 290 290 290 290 290 289 289 289
299 300 300 300 300 299 299 299 299 299 299 299 300 300 300 300 300 301 301 301 301 301 301 301 301 301 300 300 300 299 299 299 298 298 297 297 297 297 296 295 294 293 293 292 291 291 290 288 287 287 288 288 288 288 289 290 291 292 292 292 292 292 292 292 291 291 291 291 290 290 290 290 290 290 290 290 290 290 290 290 290 291 290 290 290 289
299 299 300 300 299 299 299 299 298 298 298 299 299 299 300 300 300 300 300 300 300 300 300 300 300 300 300 300 300 300 299 299 299 298 298 297 297 297 296 295 294 293 293 293 292 291 290 289 288 287 287 287 288 288 289 289 289 290 291 291 291 291 291 291 291 290 290 290 290 290 289 290 290 290 290 290 290 290 290 291 291 291 291 291 290 289
299 299 299 299 299 299 299 298 298 298 298 298 298 299 299 299 299 299 299 299 300 300 300 300 300 299 299 299 299 299 299 299 299 299 298 298 297 297 296 295 294 294 294 293 293 292 291 291 291 290 288 287 287 287 288 289 289 289 289 289 290 290 291 290 290 290 290 290 290 290 289 289 289 290 290 290 290 290 290 291 291 291 291 291 290 289
299 299 299 299 299 299 299 298 298 298 298 298 298 298 298 298 298 298 299 299 299 299 299 299 299 299 299 299 299 298 298 298 298 298 298 298 297 297 296 296 295 294 293 293 292 292 292 292 292 291 290 289 288 287 287 287 288 289 288 288 288 288 289 290 289 289 289 289 289 289 289 289 289 289 290 290 290 290 290 290 290 290 291 291 290 290
298 299 299 299 299 299 299 299 298 298 298 297 297 297 297 297 297 297 297 298 298 298 298 298 298 298 298 298 298 297 297 297 297 298 297 297 297 297 296 296 295 295 294 293 292 292 292 292 292 292 290 290 289 288 287 287 288 288 288 288 287 288 288 289 289 289 289 289 289 289 289 289 289 289 289 290 290 290 290 290 290 290 290 290 290 289
298 298 298 298 298 298 298 298 298 298 297 297 296 296 296 296 296 296 296 296 296 297 297 297 297 296 296 296 296 296 296 296 296 296 296 297 297 296 296 295 295 295 294 293 292 291 292 292 292 291 291 290 289 288 287 286 287 288 288 288 288 287 287 288 288 288 289 289 289 289 289 289 289 289 289 289 290 290 290 290 289 289 289 289 289 289
298 298 298 298 298 298 298 298 297 297 297 296 296 296 295 295 295 295 294 294 295 295 295 295 295 295 294 294 294 294 295 295 295 295 295 296 296 296 296 295 295 295 294 293 291 291 291 291 291 291 291 290 289 288 287 286 286 287 287 288 287 287 286 287 287 288 288 288 288 288 288 288 288 289 289 289 289 290 290 290 289 289 288 288 288 288
297 297 297 298 298 297 297 297 297 296 296 296 295 295 295 294 294 294 294 293 293 294 294 294 294 293 293 292 292 292 293 294 294 294 294 294 295 295 295 295 294 294 294 293 292 291 290 290 291 291 291 290 289 288 287 286 285 286 287 287 287 287 287 287 287 287 288 288 288 288 288 288 288 288 288 289 290 290 290 289 289 289 288 288 287 287
297 297 297 297 297 296 296 296 296 296 295 295 295 294 294 294 294 293 293 293 292 292 292 292 292 292 291 290 290 290 291 292 292 293 293 293 293 294 294 294 294 294 293 293 292 291 290 290 290 290 290 290 289 288 287 286 286 286 286 286 287 287 288 288 288 288 287 287 287 287 288 288 288 288 288 288 289 290 289 289 289 289 288 288 287 287
297 297 297 297 297 296 295 295 295 295 294 294 294 294 293 293 293 293 293 292 292 291 291 291 291 291 291 290 289 288 288 289 290 291 292 292 292 292 292 293 293 293 293 292 291 291 291 290 290 289 289 289 288 288 287 287 286 286 286 286 286 286 286 287 287 287 287 287 287 287 287 287 287 287 287 288 288 289 289 289 289 289 288 288 288 287
297 297 297 297 296 296 295 294 294 293 293 293 293 293 293 293 292 292 292 292 291 291 290 290 291 291 291 290 289 288 287 287 288 288 290 290 291 291 291 291 292 292 291 291 290 290 290 290 290 290 289 288 287 287 287 287 287 286 286 285 285 285 285 285 286 286 287 287 286 286 286 286 287 287 287 287 288 288 289 289 289 288 288 288 288 288
297 297 297 296 296 295 294 294 293 293 292 292 292 292 292 292 292 292 291 291 291 290 290 289 290 291 291 290 289 288 288 287 287 287 288 289 289 290 290 290 290 290 290 290 290 289 289 289 290 290 289 288 287 286 286 286 286 287 286 286 285 285 284 285 285 285 286 286 286 286 286 286 286 286 286 286 287 288 288 288 288 288 288 288 288 288
296 296 296 296 295 294 294 293 292 292 292 292 291 291 291 291 291 291 291 291 290 290 289 289 289 290 290 290 289 288 288 287 287 287 287 287 288 288 288 288 288 288 288 288 288 289 289 288 288 289 289 289 288 287 286 286 286 286 287 286 285 285 284 284 284 284 285 285 285 285 285 285 286 286 286 286 286 286 287 288 288 288 288 288 288 287
296 296 295 295 295 294 293 293 292 292 292 291 290 290 289 290 290 291 291 290 290 289 289 289 289 290 290 289 288 288 287 287 286 286 286 286 286 287 287 287 287 287 287 287 287 287 287 287 287 287 288 288 288 287 287 286 285 286 286 286 285 285 284 284 284 284 284 284 284 284 284 285 285 286 286 286 285 286 286 287 287 287 287 287 287 287
296 295 295 295 294 294 293 292 292 291 291 291 290 289 289 289 289 289 289 289 289 289 289 289 289 290 289 289 288 287 287 286 286 285 285 285 285 286 286 286 286 286 286 285 285 285 285 285 285 285 286 287 287 287 287 287 285 285 284 285 285 285 284 284 284 284 284 284 284 284 284 284 285 285 285 285 285 285 285 286 286 287 287 287 287 287
Wind_Speed
12 13 13 13 13 13 14 15 15 15 15 15 15 15 15 15 16 16 17 17 18 18 18 18 18 18 17 17 17 17 17 17 17 18 18 19 19 19 20 20 20 20 21 21 20 20 21 22 22 23 23 24 23 23 22 22 22 20 17 14 12 11 11 11 12 13 13 13 13 13 13 13 13 14 15 15 16 16 15 13 12 11 10 10 9 9
12 13 14 14 15 15 15 16 16 16 15 14 15 15 15 16 16 17 18 18 18 18 18 18 18 18 18 18 18 18 18 18 18 18 19 19 19 19 19 19 19 20 20 20 20 20 21 22 23 24 25 24 23 22 22 22 21 19 16 13 12 11 11 11 12 13 14 14 13 12 12 13 14 16 16 17 16 16 16 15 13 12 11 11 11 10
12 13 14 15 16 16 16 17 18 17 16 16 16 17 17 18 18 19 19 19 19 19 19 19 19 19 19 19 19 19 19 18 18 19 19 19 19 19 19 19 19 20 21 20 20 21 22 23 25 26 26 24 22 21 21 21 20 18 15 13 12 12 11 11 12 12 13 13 13 13 12 12 14 16 17 17 17 17 17 16 15 14 13 13 12 11
13 14 14 15 16 17 18 18 18 19 19 18 18 19 19 19 19 20 20 20 20 20 20 20 20 20 21 21 21 21 20 19 19 19 20 20 20 19 19 19 20 21 21 21 21 22 23 25 26 26 25 24 22 21 21 21 19 17 15 14 13 13 13 14 14 14 14 13 13 14 14 14 13 14 16 17 18 18 18 17 17 17 16 15 13 12
14 15 15 16 17 17 18 18 18 19 19 19 19 19 20 20 20 20 20 21 21 21 21 21 21 21 22 22 22 22 21 20 20 21 21 21 21 20 19 19 20 21 22 21 22 23 24 26 26 25 24 22 21 21 21 20 19 17 16 15 15 15 15 16 16 16 16 15 14 15 16 16 16 15 15 16 16 17 18 18 18 18 18 17 15 13
14 15 16 17 18 18 18 18 18 18 18 18 19 19 19 19 20 20 20 21 21 22 22 22 22 22 22 22 22 21 20 20 21 21 22 22 22 21 19 19 20 21 22 22 22 23 25 26 25 24 22 21 21 21 21 21 19 18 17 16 16 16 17 18 18 17 17 16 15 15 16 17 17 17 17 16 15 15 16 16 16 16 17 16 15 14
15 15 16 17 18 19 18 18 18 18 17 17 18 18 19 20 20 21 21 22 22 23 23 24 24 24 23 22 21 20 19 20 21 22 22 22 22 21 20 20 20 22 24 24 24 24 25 25 25 23 22 22 22 22 22 21 20 18 18 17 17 17 18 18 18 17 17 16 16 16 17 18 18 19 18 18 16 15 14 13 12 12 12 12 12 12
14 15 16 17 17 18 19 19 19 19 18 17 18 19 20 21 22 23 23 23 24 24 24 24 25 25 24 22 20 19 19 19 20 21 21 21 21 20 20 19 20 22 24 26 26 26 25 25 25 24 24 24 24 23 22 21 19 18 17 17 17 18 18 18 17 17 17 17 18 18 19 19 19 20 19 19 18 16 14 12 11 10 10 10 10 10
15 15 16 17 17 17 18 20 21 21 19 18 18 18 19 20 22 23 24 24 25 24 24 23 23 24 23 22 20 19 19 19 20 20 20 19 19 18 18 18 19 21 24 26 27 27 26 26 26 25 25 25 25 24 22 20 19 17 17 17 18 18 18 17 17 17 17 18 20 21 21 21 21 21 20 20 19 18 16 14 12 11 11 10 10 9
16 16 16 17 18 18 17 19 21 22 21 19 19 19 19 19 20 20 21 23 25 25 23 22 22 22 22 21 20 20 20 20 20 19 19 18 17 17 16 16 17 19 22 25 27 27 26 26 26 25 25 25 24 23 21 19 18 17 17 17 18 18 17 17 16 16 18 19 21 22 23 23 22 22 21 20 20 18 17 15 14 12 12 11 10 9
16 16 15 16 17 18 18 19 21 22 22 20 20 21 21 21 19 18 17 19 21 22 22 22 21 21 21 21 20 20 20 20 20 19 18 18 17 16 16 15 15 17 21 24 26 26 26 25 25 25 25 24 22 21 19 18 17 16 17 17 18 18 17 17 16 17 18 20 22 23 24 23 23 22 22 21 20 19 17 16 15 13 13 12 10 9
14 14 14 14 15 16 18 20 21 22 21 19 17 17 19 20 19 17 16 17 18 18 19 20 21 22 21 21 20 20 20 20 19 19 18 17 17 16 15 15 15 17 20 23 25 25 25 25 24 24 23 22 20 19 18 17 17 17 17 18 18 17 17 17 17 17 18 20 22 23 24 24 23 22 21 20 19 18 17 16 15 14 13 12 11 10
15 14 14 14 15 16 17 17 17 17 18 17 15 15 15 17 17 17 17 18 19 18 18 18 20 22 22 22 21 20 20 20 19 18 17 16 16 16 15 16 18 20 22 23 24 25 24 24 23 22 21 20 19 19 18 17 17 17 18 18 18 17 17 17 17 17 18 19 21 23 23 23 22 21 20 19 18 17 16 15 15 14 13 12 11 10
14 13 13 13 14 15 16 16 15 15 16 17 17 17 16 15 15 15 16 18 19 19 18 18 20 22 23 23 22 21 21 20 20 19 17 16 15 15 16 18 20 23 24 25 25 25 25 23 22 21 20 20 19 19 18 18 18 18 18 18 17 17 17 17 17 18 18 19 21 22 22 21 21 19 18 17 16 15 15 15 14 14 13 12 12 11
13 12 11 11 13 14 15 16 16 17 18 19 19 19 18 17 16 16 15 16 18 18 17 18 20 22 23 24 24 23 21 20 20 19 18 16 15 15 17 20 23 25 26 27 27 26 25 24 22 21 21 21 20 20 19 19 19 19 18 18 17 17 17 17 18 19 19 20 21 21 21 20 19 18 17 16 15 14 13 13 13 13 13 12 12 12
14 13 12 12 13 15 16 16 16 17 19 19 18 18 18 17 17 16 16 16 16 15 14 15 15 16 19 21 22 22 20 19 19 18 18 16 15 16 18 21 24 26 27 28 28 27 26 25 24 23 23 23 22 21 20 20 19 19 19 18 17 17 17 17 18 19 20 20 20 20 20 19 18 17 17 16 15 14 13 13 13 13 13 13 13 13
15 14 14 13 14 15 17 17 18 19 19 18 18 18 18 18 17 17 16 16 15 14 13 12 8 6 8 13 16 16 16 16 16 17 17 16 16 17 19 22 25 27 27 28 28 27 26 25 25 25 24 24 23 22 21 21 20 19 19 18 18 17 17 18 19 20 20 20 20 19 19 18 18 17 16 15 14 14 13 13 13 13 13 13 13 12
15 15 15 15 15 15 16 17 19 20 19 19 19 19 19 19 18 18 18 17 15 14 14 13 10 6 4 7 8 8 11 12 14 15 15 16 17 18 20 22 25 27 27 28 28 27 27 27 27 26 26 25 24 23 22 21 20 20 19 19 18 18 18 19 19 20 20 19 19 18 17 17 16 15 15 15 14 14 14 13 13 13 13 13 13 13
16 16 16 16 16 17 17 18 19 19 18 18 18 17 17 18 19 18 18 18 17 16 15 13 13 13 12 12 11 9 9 9 12 14 15 15 17 19 20 23 25 26 27 28 28 28 27 27 27 27 26 25 25 24 23 22 21 20 19 19 18 18 19 19 19 19 19 18 17 16 16 15 15 14 15 15 15 15 14 14 14 14 14 14 14 13
18 18 19 19 18 17 17 19 20 20 20 19 18 17 18 18 18 18 18 18 18 18 17 16 15 15 15 16 15 13 11 10 11 14 15 15 16 19 21 23 25 26 26 27 28 28 27 28 27 27 26 26 25 25 24 23 21 20 19 19 18 19 19 19 19 19 18 17 16 15 15 14 14 14 15 15 15 15 15 15 15 15 15 15 15 14
18 19 21 20 18 17 17 20 22 23 21 20 20 19 19 18 18 18 18 18 18 18 18 17 17 18 17 16 16 16 15 14 14 15 14 14 15 19 22 24 25 26 26 27 28 28 28 28 28 28 27 27 26 25 24 23 22 20 20 19 19 19 19 19 19 18 17 16 15 15 14 14 14 14 15 15 15 15 14 14 14 14 14 14 14 13
19 19 21 21 20 20 19 21 22 23 22 21 21 21 20 18 17 17 18 18 18 18 18 19 20 20 20 19 19 19 18 17 16 16 13 11 13 17 22 24 25 26 25 26 28 28 28 28 28 28 28 27 27 26 25 24 22 21 20 19 19 18 18 18 18 17 16 15 15 14 14 13 13 14 14 14 14 13 12 12 12 12 12 11 11 11
20 21 21 22 23 23 23 22 22 22 22 23 23 23 22 21 20 20 20 20 20 20 21 21 22 23 23 22 22 21 20 19 18 16 13 10 11 15 20 23 25 25 24 26 27 28 28 28 28 28 28 28 27 26 25 24 23 22 20 20 19 19 18 18 17 16 15 15 14 13 12 12 12 12 12 12 12 11 11 11 10 10 10 9 9 9
23 23 23 23 24 25 25 25 24 24 25 25 25 25 25 24 24 23 22 21 21 21 22 22 22 22 23 23 23 22 22 20 19 17 15 12 11 13 18 22 24 24 23 24 26 27 27 28 28 28 28 27 27 27 26 25 24 22 21 20 19 19 18 17 16 15 15 14 12 11 10 10 11 11 11 11 11 10 10 10 9 9 9 9 8 8
26 25 25 25 25 25 26 26 27 27 27 28 28 27 27 26 26 24 23 22 21 21 20 19 17 16 18 20 20 21 22 22 20 19 16 13 11 13 16 20 23 23 21 23 25 26 27 27 28 28 28 27 26 26 26 25 24 23 22 21 20 19 18 17 16 15 14 12 11 10 10 10 10 11 11 11 10 10 9 9 9 9 9 9 9 9
30 30 29 28 28 27 27 27 28 29 30 30 29 29 28 27 26 24 23 22 21 20 17 14 12 12 15 15 16 18 21 22 22 22 19 14 10 11 15 19 22 23 20 21 23 24 25 27 28 28 29 28 26 25 25 25 24 23 22 21 20 19 18 17 16 14 13 12 11 10 9 10 11 11 11 10 10 9 9 9 9 9 9 9 9 9
31 31 31 30 29 28 28 28 29 30 30 31 30 29 28 26 24 22 20 21 21 19 16 11 9 9 12 12 13 16 20 22 23 24 23 19 12 10 15 19 22 22 21 21 21 23 24 26 28 29 29 29 27 24 24 24 24 23 23 22 21 20 18 17 16 14 13 12 11 10 10 11 11 12 11 11 10 9 9 9 10 10 9 9 9 9
31 32 32 31 30 29 28 29 29 29 30 30 29 29 27 25 23 20 19 20 20 19 17 13 9 7 8 10 12 15 19 21 24 25 25 21 14 11 15 19 22 22 20 19 20 22 23 24 27 29 30 30 28 26 23 23 23 23 23 22 21 20 18 17 16 14 13 12 11 10 10 11 12 12 12 11 11 10 10 10 10 10 10 10 11 11
31 31 32 32 31 30 29 29 30 30 29 29 28 28 27 27 25 23 22 22 20 19 17 17 14 11 9 11 12 14 17 20 24 26 26 21 14 11 15 19 22 22 20 17 15 17 20 23 26 28 30 30 30 28 25 22 21 22 22 21 20 19 18 17 16 14 13 12 11 10 11 12 12 13 13 12 11 11 10 10 10 10 11 12 12 12
31 32 32 33 33 32 31 30 31 31 30 29 29 28 28 28 28 27 26 23 21 20 18 18 17 14 11 8 7 8 12 19 24 26 26 21 13 10 14 19 22 23 21 15 8 6 11 19 24 28 30 31 30 29 27 25 23 22 21 21 20 19 18 17 16 15 14 13 12 11 11 12 13 13 13 13 12 11 11 11 11 12 13 13 13 13
31 32 33 33 33 32 31 31 31 31 31 30 30 29 29 29 29 28 27 25 24 22 20 18 17 15 13 7 3 3 6 16 23 26 26 22 17 14 16 19 22 24 24 17 7 0 4 10 19 26 30 31 31 30 29 27 26 24 23 22 21 20 19 18 17 16 15 14 13 12 12 13 14 14 14 13 13 12 12 12 12 13 14 14 14 13
32 33 32 32 32 31 31 30 30 31 31 31 31 30 30 31 30 30 29 28 27 25 23 20 18 17 17 13 9 6 6 14 21 25 26 23 19 17 19 20 21 24 25 23 14 6 3 4 11 21 28 30 31 31 30 29 28 26 25 24 23 22 20 19 19 18 17 16 14 13 13 13 14 14 14 14 13 13 13 13 13 14 15 15 15 14
32 32 32 32 31 30 30 29 29 29 30 30 30 30 31 31 31 31 31 31 30 28 26 23 20 18 18 19 17 15 13 15 19 23 25 24 20 17 19 20 21 22 24 24 18 11 6 5 8 13 22 29 32 32 31 30 29 28 27 26 25 24 23 22 21 20 19 17 16 14 14 14 15 15 15 14 14 14 14 14 14 15 16 16 15 15
30 30 30 30 29 29 29 28 28 28 28 29 30 30 30 31 31 32 32 32 32 31 30 27 24 21 18 17 17 17 18 18 19 21 23 25 22 19 20 21 21 22 22 21 17 12 6 7 8 8 13 24 30 32 32 31 30 29 28 27 27 26 25 24 23 21 20 18 17 15 15 15 15 15 15 15 15 15 14 14 15 15 16 16 15 15
26 26 26 27 27 27 27 27 27 27 28 28 29 30 30 30 31 31 32 32 33 33 32 31 29 27 23 19 16 17 19 21 21 22 22 26 26 23 22 22 22 22 21 19 17 12 6 8 10 10 10 15 22 28 31 31 30 29 28 28 27 27 26 25 24 22 20 19 17 16 16 17 17 17 16 16 16 15 15 15 15 15 16 15 15 14
23 23 24 24 25 25 25 25 26 26 27 28 29 29 30 30 30 30 31 31 32 33 33 33 32 31 29 27 23 22 23 24 24 23 23 26 27 25 22 22 23 24 21 20 18 14 10 9 11 12 12 11 13 19 26 30 31 30 29 28 28 27 26 25 24 22 20 19 18 18 18 18 18 18 18 17 17 16 16 15 15 16 15 14 13 13
21 22 23 23 24 24 24 24 24 25 27 28 29 30 30 30 30 31 31 31 31 32 32 33 33 32 32 31 30 28 27 27 26 25 25 26 27 26 24 23 24 26 24 21 19 17 14 11 10 10 11 10 11 14 20 28 30 29 28 28 28 27 27 25 24 22 20 20 19 19 19 19 19 19 19 18 17 16 16 15 15 15 15 14 13 11
21 21 22 22 23 24 24 24 24 25 27 28 29 30 30 30 31 31 30 30 30 31 31 31 32 32 32 32 31 31 29 28 27 26 26 26 27 27 26 24 25 26 27 24 22 20 17 13 8 6 7 9 11 14 19 25 27 28 28 29 28 28 27 26 24 22 21 20 20 20 20 20 20 20 20 19 18 17 16 16 15 15 14 14 13 11
20 20 21 22 23 24 24 24 25 26 27 28 28 29 29 30 30 30 30 29 29 29 29 29 30 30 31 31 31 31 30 29 28 27 27 26 27 28 28 26 25 26 27 26 24 22 20 17 13 10 8 8 9 13 18 23 26 28 28 27 27 28 27 26 25 23 22 21 21 21 21 22 21 21 21 20 19 18 18 17 17 16 16 15 13 11
20 20 21 22 24 25 26 27 27 28 28 27 27 27 27 28 28 29 29 28 28 27 27 27 28 28 29 30 30 30 30 29 29 28 27 26 27 27 27 27 26 26 26 25 24 22 21 19 18 16 14 13 11 12 15 20 25 28 27 22 20 23 27 27 26 24 23 23 23 23 23 23 23 22 22 22 21 21 20 19 19 18 17 16 14 13
20 20 22 23 25 27 28 29 29 28 27 25 25 25 25 26 27 27 27 27 27 26 26 26 26 27 28 28 29 29 28 27 26 26 25 25 25 26 27 26 26 25 25 25 24 22 22 20 18 17 16 16 15 14 15 19 23 26 25 22 20 23 27 28 27 26 25 24 24 24 24 24 24 23 23 23 23 22 22 21 20 20 19 17 15 15
20 21 22 23 24 27 29 29 28 27 26 25 24 24 25 26 26 25 25 25 25 25 25 25 24 24 24 24 25 26 26 25 24 23 23 24 24 25 26 26 26 25 24 24 23 22 21 20 18 17 17 17 16 14 14 17 21 23 23 23 22 22 22 26 28 27 26 26 26 25 25 25 25 24 24 23 23 23 23 22 21 21 20 19 17 16
19 20 22 23 24 26 27 27 26 26 25 24 24 25 26 26 26 25 24 23 23 24 24 24 24 23 21 20 21 22 23 24 23 23 23 22 23 23 25 25 25 24 23 22 21 21 21 20 19 18 18 19 18 16 15 15 18 21 22 22 21 18 13 20 27 29 28 27 27 26 26 26 26 25 24 23 24 24 24 23 22 21 20 20 19 18
20 21 22 23 24 24 24 24 25 25 24 24 24 24 25 25 25 24 23 22 23 23 23 23 23 22 19 18 18 20 21 22 23 23 23 22 22 23 24 25 24 23 22 22 21 20 19 18 18 18 18 19 18 17 16 16 17 19 21 22 22 20 17 20 26 30 30 29 28 27 27 27 26 25 24 23 24 25 25 24 23 22 21 19 18 18
21 21 21 22 22 21 21 22 23 24 24 24 24 24 24 25 25 23 22 21 22 22 22 22 20 18 15 16 17 18 20 21 23 23 24 23 23 23 24 24 23 22 21 21 21 21 19 18 17 17 18 18 18 17 16 17 18 19 20 22 22 22 22 21 25 30 32 30 29 28 27 27 26 25 24 24 25 26 26 25 24 23 21 20 19 18
21 20 20 21 21 20 21 21 22 23 24 24 23 23 24 25 24 23 22 21 21 21 22 22 19 16 14 14 15 16 17 18 20 23 24 25 24 24 24 24 22 21 20 20 20 20 21 21 20 19 18 17 17 17 17 18 18 19 19 21 22 21 20 19 21 27 31 31 30 29 28 27 26 25 25 26 26 27 27 26 25 23 22 20 19 18
20 19 19 20 20 21 21 21 22 22 22 22 22 23 24 25 24 23 22 21 21 21 21 21 19 17 16 16 16 16 16 16 18 20 23 25 25 25 25 23 22 20 19 19 19 19 19 20 21 21 19 17 15 15 16 18 19 19 20 21 21 20 19 19 20 23 29 31 31 30 30 28 26 25 25 26 27 27 27 26 25 24 22 21 19 18
20 19 18 19 20 20 20 20 20 20 20 20 21 22 23 25 25 23 22 21 21 21 20 19 18 17 16 17 18 18 18 18 18 19 22 23 24 24 24 23 22 20 19 18 18 17 17 17 18 19 20 18 16 15 16 18 19 20 21 22 22 21 20 20 20 22 25 29 31 31 30 29 27 26 26 26 26 27 28 27 26 25 23 21 20 18
20 19 18 19 19 19 19 20 20 19 19 19 19 20 22 24 25 24 23 22 22 20 19 18 17 16 15 16 17 18 19 19 19 19 21 22 23 23 23 22 21 20 18 17 16 16 15 15 15 17 19 19 18 17 18 19 19 19 20 21 21 21 20 20 21 22 23 27 29 31 31 29 29 28 27 26 25 25 27 27 27 25 24 22 21 19
20 19 18 19 19 19 19 20 20 19 19 18 18 19 21 22 23 24 23 23 22 20 19 19 18 17 15 16 17 18 18 18 18 19 20 21 23 23 22 22 21 19 18 15 14 13 12 12 13 15 17 17 17 17 18 19 19 19 19 20 20 20 20 20 21 22 23 25 28 30 30 28 28 27 26 25 24 24 25 26 26 26 24 23 22 20
20 18 18 18 19 19 20 20 20 20 19 19 19 19 20 20 21 22 22 22 21 20 19 19 18 17 16 17 17 18 19 19 19 19 20 22 23 23 23 23 22 20 17 13 11 10 9 8 7 10 14 16 16 16 17 19 20 19 18 19 20 20 19 20 21 22 23 24 27 28 29 28 27 26 25 24 22 21 21 23 25 26 25 24 22 21
Wind_Direction
253 255 256 254 253 254 254 251 249 248 247 247 249 252 254 257 259 261 263 265 266 267 268 268 268 266 264 260 258 256 256 258 260 262 263 264 265 266 268 268 267 265 262 260 258 256 254 253 253 251 249 245 241 239 238 238 238 239 240 240 240 236 228 225 225 225 223 220 213 207 202 199 200 203 203 201 195 189 187 188 194 199 199 196 190 187
253 256 257 256 255 256 257 256 255 255 256 257 258 260 262 264 265 265 266 267 267 268 268 267 267 265 263 260 258 257 258 260 262 264 264 265 266 266 267 267 265 262 260 258 255 252 252 251 250 247 242 238 236 237 239 240 239 238 236 235 232 227 222 221 223 226 228 227 224 217 205 190 181 181 187 192 192 189 187 187 188 190 189 185 180 179
255 258 258 258 256 255 255 257 258 260 262 263 264 265 267 267 267 266 266 265 265 265 264 264 263 262 261 259 259 259 261 263 264 265 265 265 265 265 265 264 261 259 257 256 252 248 247 246 244 239 235 232 233 237 241 240 238 235 232 229 225 221 218 219 221 224 228 232 236 234 224 202 182 173 174 178 181 183 184 185 186 186 185 181 177 176
252 254 256 258 257 255 254 256 258 260 262 264 266 267 268 268 267 265 264 262 262 261 260 260 259 259 258 259 260 261 263 265 265 265 264 264 263 263 262 261 258 256 255 253 248 244 242 240 236 232 229 229 234 239 241 239 235 231 228 225 223 220 219 221 222 222 222 225 233 237 233 221 202 182 171 170 172 176 179 182 183 184 183 182 180 180
249 250 253 256 257 257 257 256 256 258 261 263 265 266 267 268 267 265 263 261 260 259 258 258 257 257 258 259 260 262 264 265 265 263 263 262 261 260 258 256 254 253 252 249 245 241 237 234 231 228 228 232 237 241 240 235 230 227 225 223 222 222 223 224 225 223 220 220 226 232 231 226 217 204 188 178 174 174 176 179 181 182 184 184 183 184
248 249 253 256 258 259 260 260 259 259 260 262 264 266 267 267 267 266 265 264 263 262 261 259 258 258 258 259 261 263 265 265 263 262 261 261 260 258 254 251 249 248 248 246 244 240 236 232 229 228 231 236 240 241 237 231 226 224 223 223 223 223 224 226 226 224 222 221 223 225 223 221 218 213 207 198 190 184 182 182 183 185 188 189 190 191
247 248 251 254 258 261 262 263 263 262 262 263 265 267 268 268 268 268 268 268 268 268 267 265 262 260 259 260 262 264 265 264 263 261 260 260 259 257 252 247 244 243 243 243 242 239 236 233 231 232 235 239 240 238 232 227 224 223 224 224 224 224 224 224 224 222 220 218 217 216 213 211 211 211 211 208 205 200 196 194 194 196 199 202 205 207
245 246 247 250 255 259 263 264 265 265 265 265 267 270 271 272 272 272 272 272 272 272 272 271 268 264 262 260 261 262 263 263 261 260 259 259 259 257 252 245 241 240 240 239 237 236 234 233 233 234 237 238 237 233 228 224 223 223 224 224 224 224 223 222 220 218 214 212 212 210 207 205 205 207 209 210 210 209 208 209 212 216 221 224 226 226
240 243 246 249 252 257 262 266 268 268 268 268 267 268 271 273 275 276 276 276 275 275 275 274 272 268 264 260 259 259 260 260 260 260 260 260 259 256 250 243 239 237 236 234 232 231 230 229 230 232 234 234 231 227 224 222 222 222 223 223 223 222 221 219 217 214 210 210 210 210 207 205 205 206 208 210 211 212 215 218 222 226 229 232 233 233
237 241 246 251 255 257 260 265 269 271 272 272 271 270 268 269 271 275 277 277 277 277 276 274 272 270 266 261 258 257 258 258 259 259 260 261 260 255 249 242 239 236 233 229 227 226 226 225 226 228 229 228 226 223 221 220 220 220 221 221 221 220 220 219 216 213 210 210 211 210 209 207 207 207 208 210 212 215 219 222 223 223 221 221 221 221
237 240 244 251 257 259 260 262 266 270 272 273 273 271 268 264 263 265 270 273 275 276 276 274 272 270 268 265 261 258 259 260 259 259 259 259 258 254 247 243 242 240 234 228 225 224 224 224 224 225 225 223 221 219 219 218 218 217 217 217 218 219 220 219 218 216 214 213 212 211 210 209 208 208 208 210 212 215 219 222 223 220 216 213 211 211
236 239 242 248 252 255 257 258 261 264 267 266 265 263 262 259 256 255 257 264 269 271 272 273 274 273 270 268 266 264 263 263 263 261 258 256 253 249 245 243 244 242 236 230 227 226 225 225 225 224 222 220 218 217 216 216 215 214 214 214 216 218 220 220 220 219 218 217 215 213 211 209 208 207 207 208 209 211 214 216 218 218 216 214 215 217
235 237 240 243 244 246 249 250 253 256 255 252 249 250 254 256 254 251 251 257 261 265 267 269 271 273 273 271 268 267 267 266 265 263 259 254 248 243 239 237 237 236 234 230 228 227 226 225 224 222 219 216 215 214 214 213 212 211 212 213 215 218 221 221 221 222 221 220 219 216 213 210 208 206 205 204 204 205 206 209 213 215 217 219 223 229
232 233 233 234 237 239 241 241 245 248 247 245 244 246 250 253 253 252 251 254 258 261 263 263 265 268 270 271 269 268 267 267 266 264 260 253 245 237 233 231 229 229 228 226 225 225 225 222 220 217 215 212 211 211 211 211 211 211 211 213 216 219 221 222 222 223 223 223 221 218 215 212 209 207 205 204 203 203 205 208 213 217 222 228 235 243
228 227 227 230 234 236 237 238 241 245 247 247 247 247 248 249 249 248 246 250 255 259 259 259 261 264 266 268 268 268 267 265 264 263 260 253 242 233 228 226 224 224 224 222 221 222 222 218 214 211 209 208 208 209 209 209 210 211 212 214 217 219 222 222 222 222 223 222 221 219 216 214 212 211 210 210 211 212 214 217 221 227 235 243 250 257
226 225 226 230 235 237 238 237 238 242 246 248 247 245 243 243 243 243 242 246 250 253 252 254 258 263 265 267 267 266 265 261 258 256 254 251 241 229 223 221 219 218 219 218 218 217 217 214 211 208 207 207 208 209 209 208 209 210 211 214 217 220 222 222 222 221 220 219 219 218 217 217 216 216 218 220 224 228 232 235 240 245 251 258 263 266
224 224 226 230 235 238 239 238 239 241 245 246 245 243 239 239 239 239 238 240 242 244 243 244 248 261 266 266 265 263 258 252 248 246 245 243 236 227 220 217 215 214 215 215 215 213 210 207 206 206 206 207 208 209 209 209 209 210 212 214 218 221 222 222 220 219 218 218 218 218 219 220 222 224 227 231 237 242 247 251 255 259 263 267 269 271
221 222 225 230 236 240 240 239 240 242 242 242 242 242 241 239 239 238 237 236 236 237 239 240 239 242 250 259 260 258 254 243 237 235 233 233 231 225 219 216 215 215 214 213 212 211 208 206 205 206 207 207 208 209 209 209 209 210 212 214 217 220 221 221 219 218 218 219 220 222 224 226 230 234 239 243 248 253 256 259 261 264 267 269 271 271
222 221 222 230 238 242 241 239 239 239 237 236 237 238 237 237 236 235 234 234 235 236 237 237 239 241 245 249 253 257 258 248 234 225 223 225 226 224 218 215 215 215 214 211 209 208 207 206 206 208 208 208 209 209 209 209 209 210 211 214 216 219 220 220 219 219 220 222 224 226 230 234 239 244 250 254 257 260 261 263 264 265 267 268 269 268
226 225 227 231 235 239 239 238 237 236 235 235 234 234 232 233 232 230 230 231 233 235 236 237 239 241 244 247 250 252 252 248 232 221 220 222 223 221 218 214 213 213 212 211 209 207 205 205 206 207 209 209 209 209 209 209 210 211 212 215 217 218 220 220 220 221 222 225 228 231 236 240 245 250 255 258 261 263 264 265 265 265 266 266 266 264
228 229 229 229 231 235 238 239 240 240 238 235 232 229 228 229 229 228 228 229 231 233 233 235 238 241 242 244 246 247 246 239 226 218 220 222 222 221 218 214 212 212 211 211 209 207 205 205 205 207 208 208 209 210 209 209 210 212 213 215 217 219 221 222 222 223 225 228 232 236 239 243 247 251 255 258 260 261 262 262 262 262 261 260 258 255
232 235 237 235 233 234 237 241 244 244 239 234 228 225 225 226 226 225 225 225 227 229 232 236 240 242 243 243 243 245 244 239 228 219 217 221 223 222 218 214 212 211 211 211 210 207 205 205 206 207 208 208 209 209 210 210 211 212 214 216 219 220 222 223 224 225 228 232 235 239 242 244 246 249 252 254 254 255 254 253 252 251 249 248 246 242
241 244 245 243 240 240 242 245 246 245 241 235 230 229 230 229 227 226 226 227 228 231 234 238 241 243 244 243 243 243 242 240 233 224 215 219 224 222 218 213 211 210 212 212 211 208 206 205 205 206 206 207 207 208 209 210 211 213 215 217 219 221 222 223 225 227 230 233 236 238 240 241 241 243 245 246 247 246 244 242 239 236 233 231 228 224
254 255 254 251 249 247 248 247 247 246 244 240 238 237 238 237 236 236 237 237 237 238 239 239 240 241 241 240 239 238 238 236 231 222 216 221 225 222 217 212 209 208 212 214 213 210 208 207 206 205 203 204 206 207 208 210 212 213 216 217 219 220 221 223 225 228 229 231 231 233 234 234 233 234 235 238 239 238 236 231 225 220 217 215 214 209
261 260 258 256 255 255 255 253 251 248 245 243 242 241 241 241 240 240 240 239 237 235 234 232 232 235 237 236 234 233 234 232 226 218 213 221 226 222 216 212 208 207 210 214 214 211 209 208 206 204 201 201 202 205 208 209 210 212 215 217 218 219 220 222 225 225 225 223 222 223 224 224 223 224 226 230 232 232 228 221 214 209 206 205 205 202
264 263 261 260 260 261 261 260 258 254 249 245 242 241 240 238 235 233 230 227 224 221 218 218 223 230 232 230 229 229 230 228 224 218 214 218 222 219 214 212 208 205 208 211 212 211 209 208 207 204 201 199 200 203 207 207 208 210 214 216 217 218 220 222 222 222 219 216 214 215 216 216 215 216 219 222 226 226 222 214 207 203 201 200 200 199
266 265 264 263 263 264 265 264 261 257 252 248 244 241 238 232 226 221 219 217 214 210 206 211 223 229 227 224 225 226 226 224 221 218 216 216 218 218 213 210 206 203 205 208 210 209 208 208 207 205 201 198 198 201 205 206 207 210 212 215 216 217 219 220 220 218 214 211 210 211 211 210 210 211 213 217 220 221 217 210 203 199 197 196 196 196
269 267 265 265 265 265 265 263 261 257 252 248 244 240 234 226 218 215 216 215 211 206 206 212 220 225 225 222 221 222 223 221 220 219 217 214 217 221 214 208 203 200 200 202 204 206 205 207 207 206 202 199 197 197 200 203 206 209 212 214 215 216 217 217 216 214 212 210 210 210 209 208 208 209 211 213 216 216 213 207 201 197 196 197 197 195
269 268 266 265 265 264 262 259 257 254 250 246 242 238 232 225 220 218 219 217 210 205 209 216 221 224 225 220 216 215 218 220 221 219 214 211 215 223 214 202 198 196 195 191 194 200 203 206 207 205 202 200 198 196 196 200 204 207 209 211 213 214 214 213 212 210 209 209 211 211 209 207 208 209 209 210 211 210 208 204 199 196 198 201 201 198
268 267 265 264 263 261 258 254 253 252 248 245 242 237 232 228 225 224 224 219 211 206 211 217 221 220 215 199 194 206 215 220 221 219 211 208 210 216 207 195 193 194 192 183 175 192 209 211 209 206 202 200 198 197 195 196 198 201 204 205 207 209 209 208 206 205 205 207 210 211 209 207 207 207 208 209 208 207 204 201 198 199 203 203 203 201
265 264 262 261 260 258 255 252 250 249 247 245 242 238 232 229 227 227 225 220 214 211 212 216 217 214 204 182 160 193 219 218 220 218 211 206 208 212 203 191 192 196 195 188 178 136 220 217 213 209 205 201 199 198 196 196 196 197 199 200 201 202 202 202 200 200 201 206 209 211 209 207 206 207 207 208 207 205 203 200 200 203 206 205 203 203
260 259 258 258 257 255 252 249 246 245 245 244 242 238 233 230 228 226 224 221 218 215 214 214 215 212 207 208 210 216 221 215 217 217 211 206 208 212 208 196 194 197 198 195 193 188 177 197 207 207 206 203 201 199 198 197 197 196 197 197 198 198 198 197 196 197 199 204 209 211 209 207 207 207 207 207 206 205 203 200 203 207 209 206 205 205
254 253 253 254 254 252 249 246 243 242 241 241 240 238 235 231 229 227 225 224 222 220 217 215 214 213 213 215 219 224 225 220 219 217 212 207 205 207 207 200 197 196 197 197 197 196 182 171 181 196 203 204 203 201 199 198 197 197 197 197 197 197 197 196 196 197 200 204 206 208 207 206 206 207 207 207 207 205 203 202 204 208 211 209 208 209
250 248 248 249 249 248 247 244 241 239 238 238 238 237 235 232 230 228 227 226 226 224 223 220 217 214 213 215 221 225 226 225 223 220 214 207 204 204 204 198 195 194 193 195 198 199 190 174 165 173 193 202 204 204 201 199 198 198 197 198 198 197 197 196 197 200 202 204 205 204 204 204 205 206 207 207 207 207 205 203 205 209 213 213 213 214
247 244 242 242 242 243 242 241 238 236 235 235 235 235 235 233 232 230 229 228 228 228 228 227 226 222 218 216 218 223 224 225 225 221 215 208 206 205 202 199 197 195 191 193 196 195 177 169 165 162 168 189 200 205 204 201 199 198 198 198 198 198 199 199 200 201 204 205 204 203 201 202 203 204 205 206 207 207 206 205 206 211 216 217 218 219
247 242 238 236 235 236 237 237 235 234 232 232 232 233 234 233 233 231 230 230 229 230 231 232 232 232 230 228 226 226 228 229 228 223 217 213 210 207 202 201 201 198 193 193 196 195 182 167 164 164 161 168 188 202 205 204 201 199 198 198 198 199 200 202 203 203 204 204 204 203 201 201 202 204 205 207 207 207 208 208 208 211 216 220 222 224
250 243 237 232 231 232 233 233 232 231 230 230 230 231 232 232 232 232 231 231 231 231 231 232 234 235 236 237 236 236 236 236 233 227 222 219 216 211 206 206 205 202 197 194 195 194 188 173 164 165 166 169 177 190 200 203 202 200 200 199 198 199 200 202 204 205 205 205 205 204 203 202 202 204 206 208 208 207 209 209 210 211 213 217 221 225
252 245 238 232 229 229 231 231 230 229 229 229 229 230 231 231 231 231 231 231 231 231 231 232 233 233 234 236 237 239 239 238 235 231 226 223 219 215 211 208 207 206 204 201 197 193 188 182 175 175 185 186 184 185 191 196 199 201 201 201 200 200 201 203 204 205 205 206 206 206 205 203 203 204 206 207 207 207 207 207 207 208 210 212 216 220
254 248 241 234 230 229 230 230 230 231 231 231 230 230 230 230 230 230 229 229 229 230 230 230 230 231 232 233 234 235 235 236 235 234 230 225 221 217 213 210 208 208 208 206 201 196 193 193 195 195 192 190 188 188 189 192 196 199 200 201 202 203 204 204 204 205 205 205 206 206 206 204 204 205 206 207 206 206 205 203 202 203 204 203 204 208
258 251 245 238 233 230 230 231 233 233 232 231 230 229 227 226 226 226 226 226 226 227 227 228 229 230 230 231 231 231 232 233 233 233 230 227 223 219 216 212 211 209 207 205 202 199 197 199 202 201 195 191 187 184 185 189 194 196 195 196 201 205 206 205 204 204 205 205 206 206 206 205 204 204 206 208 208 206 204 201 200 201 202 199 195 194
264 258 252 244 237 233 233 233 234 233 231 228 226 224 223 221 220 220 220 221 222 223 224 225 225 226 228 228 228 228 227 228 229 229 227 226 223 220 217 215 214 212 207 203 201 201 201 202 203 202 197 195 190 185 184 188 192 193 191 192 198 204 205 205 204 204 204 205 207 207 206 205 204 204 206 209 210 209 206 203 201 202 203 202 199 196
266 263 258 250 242 235 233 232 231 229 227 224 221 220 219 219 217 215 214 214 215 217 219 219 218 218 218 220 222 222 221 221 220 220 221 221 220 218 216 214 214 213 209 203 201 201 203 203 202 200 196 193 188 184 186 188 190 191 192 194 196 198 201 204 205 203 203 204 206 207 207 205 204 204 206 209 210 210 208 206 205 206 206 206 207 206
265 266 264 258 248 238 231 227 223 221 220 218 218 218 219 219 217 214 212 210 210 211 212 213 212 210 208 208 211 213 213 213 212 211 211 213 214 214 213 213 214 214 210 203 199 200 203 203 203 201 198 194 188 182 180 182 186 189 192 193 190 185 186 200 203 202 202 203 204 205 206 206 205 204 205 208 209 208 206 205 207 210 211 211 212 212
267 269 268 263 254 242 229 219 214 213 213 213 214 216 218 218 216 214 211 209 209 208 208 208 207 205 201 199 200 201 202 204 204 204 204 205 207 209 210 211 213 214 214 206 200 197 198 199 201 201 199 194 189 185 182 180 182 186 190 192 191 188 189 195 198 198 199 201 203 204 206 206 205 204 205 207 208 206 203 204 206 210 214 215 216 217
268 269 267 263 254 240 225 215 211 210 210 211 212 214 216 216 214 211 209 207 206 205 204 202 198 194 194 197 196 193 192 193 194 195 197 198 200 203 206 209 211 213 214 212 207 201 196 193 194 196 195 192 188 185 183 181 182 185 188 191 193 197 201 201 198 196 196 198 200 202 205 205 204 202 203 206 206 205 203 204 207 211 214 217 218 220
265 264 261 258 249 237 225 217 212 209 207 208 209 211 213 214 213 210 209 206 204 202 202 199 194 190 192 194 192 189 186 186 187 189 191 193 196 199 202 206 209 211 212 212 210 208 203 197 193 189 185 183 185 187 187 185 183 183 186 189 192 196 200 203 201 198 196 196 197 200 203 204 203 201 201 205 206 205 205 207 209 212 216 219 221 222
261 258 253 249 242 234 227 220 213 208 205 204 205 207 209 211 210 209 207 206 203 200 198 196 195 195 196 193 189 185 183 182 183 186 187 190 192 195 198 201 205 207 208 207 205 205 206 205 201 194 184 178 177 181 188 190 189 186 185 187 190 193 197 201 202 201 199 197 197 198 200 200 199 199 200 203 205 206 207 209 212 215 218 221 223 225
261 256 248 241 235 229 224 219 213 207 203 202 202 203 205 208 207 205 203 203 201 198 194 192 194 197 197 194 190 187 185 184 182 183 184 186 189 192 195 196 198 199 201 201 200 200 202 205 205 202 195 187 180 178 182 188 191 191 189 189 189 191 196 200 202 202 199 198 198 198 198 197 195 195 197 200 203 206 208 210 212 216 219 222 225 227
264 259 248 237 228 222 219 216 212 208 204 201 199 199 201 205 205 203 202 201 199 196 191 191 193 195 195 191 189 187 185 183 181 181 182 183 184 186 187 188 188 188 188 189 190 192 195 198 202 204 203 198 191 184 183 186 190 193 193 192 191 192 194 198 200 200 198 198 199 200 199 198 197 197 196 196 200 205 208 210 213 216 220 223 226 228
265 261 252 238 226 218 215 213 211 208 206 202 198 196 197 199 200 201 201 200 198 195 194 193 193 193 191 188 185 182 180 178 177 178 180 180 180 179 178 177 176 173 169 169 172 175 179 184 192 199 203 204 200 195 189 187 188 190 191 192 193 193 193 195 197 198 197 197 198 199 198 198 199 199 198 197 199 204 209 212 215 217 220 223 226 229
263 261 254 240 226 218 214 212 210 208 206 202 198 195 194 193 194 196 197 197 196 196 196 196 195 193 190 186 181 178 178 176 175 176 178 179 177 175 172 171 168 163 156 152 151 154 155 161 177 193 201 202 204 205 201 193 188 185 185 189 192 193 192 193 194 196 196 196 197 197 196 195 196 198 199 198 199 203 208 213 217 218 220 223 226 229